User: anonymous   Login
Location: Peebles
(55.6412°N, 3.1714°W)
Time: 02:52:19
(UTC+00:00)
Language:

Helios 1A Rocket - Orbit

View from above orbital plane
View from above orbital plane
View from above satellite
View from above satellite

Ground track
Ground track

The orbit data is extracted from the following two-line orbital elements,

1 23608U 95033D   21333.90129706  .00001484  00000-0  13125-3 0  9997
2 23608  98.2732  24.3847 0014432 290.7979  69.1696 14.97970579430830
Epoch (UTC): 29 November 2021 21:37:52
Eccentricity: 0.0014432
inclination: 98.2732°
perigee height: 563 km
apogee height: 583 km
right ascension of ascending node: 24.3847°
argument of perigee: 290.7979°
revolutions per day: 14.97970579
mean anomaly at epoch: 69.1696°
orbit number at epoch: 43083

The dashed part of the orbit path shows where the satellite is in the earth's shadow,  

DLR